Location: Newark
(46.7636°N, 1.8358°W)
Time: 13:54:49
(UTC+00:00)

N. Korean satellite - Visible Passes

Search period start: 23 October 2019 00:00
Search period end: 02 November 2019 00:00
Orbit: 455 x 508 km, 97.2° (Epoch: 22 October)

Date Brightness Start Highest point End Pass type
(mag) Time Alt. Az. Time Alt. Az. Time Alt. Az.
23 Oct 10.0 05:07:24 10° NE 05:09:43 16° E 05:12:03 10° SE visible
24 Oct 10.5 18:29:04 10° W 18:29:42 10° W 18:30:20 10° WNW visible
25 Oct 7.8 05:49:09 10° NNE 05:52:43 49° E 05:56:18 10° S visible
25 Oct 9.6 18:01:32 10° SW 18:04:09 20° W 18:06:48 10° NW visible
26 Oct 9.2 05:24:14 10° NE 05:27:18 25° E 05:30:24 10° SSE visible
26 Oct 8.1 17:35:26 10° S 17:38:42 40° W 17:42:01 10° NNW visible
27 Oct 10.2 04:59:56 10° ENE 05:01:48 13° E 05:03:41 10° ESE visible
28 Oct 6.8 06:06:29 10° NNE 06:10:11 82° ESE 06:13:54 10° S visible
28 Oct 10.1 18:20:02 10° WSW 18:21:43 13° W 18:23:25 10° WNW visible
29 Oct 8.2 05:41:20 10° NNE 05:44:49 39° E 05:48:19 10° SSE visible
29 Oct 9.2 17:53:16 10° SSW 17:56:11 25° W 17:59:09 10° NW visible
30 Oct 9.6 05:16:31 10° NE 05:19:22 21° E 05:22:14 10° SE visible
30 Oct 7.6 17:27:22 10° S 17:30:44 51° W 17:34:12 10° NNW visible
31 Oct 10.4 04:52:42 10° ENE 04:53:49 11° E 04:54:56 10° ESE visible
01 Nov 7.1 05:58:34 10° NNE 06:02:16 66° E 06:05:58 10° S visible
01 Nov 9.9 18:11:27 10° SW 18:13:42 16° W 18:15:58 10° NW visible
